sat.trackr.live / text

‹ back to catalog

STARLINK-11518 [DTC]

NORAD 62462 · 2024-254A

PAYLOAD ACTIVE UNKNOWN

§ Identity

Operator
Country
US
Launch date
2024-12-31
Launch site
AFETR
Launch vehicle
Mass (kg)
RCS (m²)

Purposes: comms

External: N2YO · Heavens-Above · Gunter

§ Orbital elements

Epoch: 2026-05-25T05:21:35.444160Z

Period
91.66 min
Inclination
42.9995°
Eccentricity
0.0001594
Mean motion
15.70945395 rev/d
Perigee alt
355.1 km
Apogee alt
357.3 km
Semi-major
6,734.3 km
B*
1.4644e-3
RAAN
122.0530°
Arg perigee
257.3403°
Mean anomaly
102.7287°
Rev number
8,144

§ Raw data

STARLINK-11518 [DTC]1 62462U 24254A   26145.22332690  .00192731  00000+0  14644-2 0  99952 62462  42.9995 122.0530 0001594 257.3403 102.7287 15.70945395 81448

JSON: /api/v1/satellites/62462 · /tle

For live sub-satellite position, see the globe view (requires WebGL).

§ Visibility from observer

Set your observer location to see the next 7 days of passes ≥ 10°. The values pass through the URL so the page stays shareable.

No JS? Fill the form by hand. The geolocation button needs JavaScript.